FREGAT DEB, 45971

Orbit data source: Space-Track

FREGAT DEB, 45971 is space debris in LEO originally from a launch on Mon, 18 Jul 2011 UTC launched from the Tyuratam Missile And Space Complex (TTMTR). Debris objects in space refer to the collection of defunct objects orbiting the Earth. Examples of debris include non-operational satellites, rocket bodies, and fragments generated from explosions, collisions, or faulty payload assembly.

Loading next visibility...
Identifier
45971, 2011-037GC
Orbit
LEO
Last TLE update
23 hours ago
Origin
Manufacturer
Lavochkin
Mission
Spacecraft
Bus & Motor
Unknown
Mass
Unknown
Launch date (UTC)
Icon of a cake. It is the launch day of the satellite!2011-07-18 (14 years ago)
Launch vehicle
Unknown
Launch site
Tyuratam Missile And Space Complex (TTMTR)
Object type
Payload
Rocket body
Debris
Shape & HBR
Unknown
Radar Cross Section
Small (<0.1 m²)

Expand to show TLE details & history

TLE from 23 hours ago
0 FREGAT DEB
1 45971U 11037GC  25198.99540400  .00031901  00000-0  30883-2 0  9992
2 45971  51.4591  54.6207 1196210  53.5898 316.9425 12.89115661225318
Epoch: 2025-07-17T23:53Z
TLE epoch observation values (Epoch: 2025-07-17T23:53:22.905Z)
Latitude
-0.00001°
Longitude
120.22204°
Altitude
692.624 km
Speed
7.804 km/s
True Right ascension
03h 38m 28s
True Declination
0° 00' 00"
Sunlit
Object was in daylight at epoch
Visualization orbit readout
Latitude
-34.30537°
Longitude
-30.26979°
Altitude
2,215.958 km
Speed
6.4 km/s
Apparent Right ascension
20h 04m 12s
Apparent Declination
-47° 43' 50"
Sunlit
Object is in full shadow
Visualization observer readout
Local Sidereal Time
12:06:36
Azimuth
121.258° SE
Elevation
-46.723°
Doppler factor
1
Orbital elements
Apogee altitude
2,224.65 km
Perigee altitude
386.395 km
Semi-major axis
7,683.659 km
Eccentricity
0.11962
Inclination
51.4591°
RAAN
54.6207°
Arg. of periapsis
53.5898°
True anomaly
306.50131°
Mean anomaly
316.9425°
Eccentric anomaly
311.83605°
Mean motion
3.22249 °/min
Orbital period
111.72 mins
BSTAR
0.0030883
Loading maneuver chart data...
Loading SW <> Apogee altitude chart data...
Loading historical data...
Loading historical data...
Loading historical data...
Loading historical data...
Loading historical data...
Loading historical data...
Loading historical data...
|